Regional Weather Roundup
Issued by NWS

Home | Current Version | Previous Version | Graphics & Text | Print | Product List | Glossary On
Versions: 1 2 3 4 5 6 7 8 9 10 11 12 13 14 15 16 17 18 19 20 21 22 23 24 25 26 27
000
ASUS45 KBOI 162110
RWRID

IDAHO REGIONAL WEATHER ROUNDUP
NATIONAL WEATHER SERVICE BOISE ID
200 PM MST MON JAN 16 2017

NOTE: "FAIR" INDICATES FEW OR NO CLOUDS BELOW 12000 FEET
WITH NO SIGNIFICANT WEATHER AND/OR OBSTRUCTIONS TO VISIBILITY

IDZ012-014-162200-
SOUTHWEST IDAHO


CITY           SKY/WX    TMP DP  RH WIND       PRES   REMARKS
BOISE          SUNNY     11   5  77 S6        30.44F WCI   1
CALDWELL       SUNNY     12   2  64 NW6       30.51F HAZE    WCI   3
MOUNTAIN HOME  SUNNY      9   9  99 SE5       30.42F WCI   1
$$

IDZ016-017-162200-
SOUTHCENTRAL IDAHO


CITY           SKY/WX    TMP DP  RH WIND       PRES   REMARKS
BURLEY         SUNNY     19  12  74 NE3       30.30F
JEROME         SUNNY     13   9  84 NE9       30.32F WCI   1
TWIN FALLS     SUNNY     20  14  77 N3        30.30F HAZE
$$

IDZ019>023-162200-
SOUTHEAST IDAHO


CITY           SKY/WX    TMP DP  RH WIND       PRES   REMARKS
IDAHO FALLS    CLOUDY     5  -1  76 N5        30.31F WCI  -4
POCATELLO      CLOUDY     8   2  76 CALM      30.32F
REXBURG        CLOUDY     8   1  73 CALM      30.29F
$$

IDZ006-010-011-018-031-032-162200-
CENTRAL IDAHO MOUNTAINS


CITY           SKY/WX    TMP DP  RH WIND       PRES   REMARKS
MCCALL         SUNNY     12   6  77 SW5       30.22F WCI   4
HAILEY         MOSUNNY   14   7  73 SE5       30.25F WCI   6
STANLEY          N/A     -3  -9  75 CALM      30.24F
SALMON         SUNNY     -9 -17  70 CALM      30.48F
CHALLIS        MOSUNNY  -11 -16  78 CALM      30.35F
$$

IDZ002-004-006-007-026-162200-
NORTHERN IDAHO


CITY           SKY/WX    TMP DP  RH WIND       PRES   REMARKS
LEWISTON       SUNNY     15   8  73 CALM      30.39F
LOWELL           N/A     26  18  71 N3        30.39F
COEUR D`ALENE  CLOUDY    23  18  81 NE9       30.31F WCI  13
MULLAN PASS    MOSUNNY   25  18  74 S6        30.12F WCI  18
$$




USA.gov is the U.S. government's official web portal to all federal, state and local government web resources and services.